Probability
97 97 100 100 94 94 94 94 90 81 71 58 58 39 26 32 26 65 65 90 90 84 81 77 81 77 77 74 71 71 71 68 74 65 58 55 58 58 58 58 65 61 61
97 100 100 100 100 97 94 94 94 87 87 84 71 58 55 58 68 65 58 71 81 81 77 77 74 71 74 68 68 68 65 58 48 48 52 58 55 55 48 48 39 39 42
100 100 100 97 94 94 97 97 94 90 84 74 71 65 48 65 42 48 61 55 55 58 71 68 71 74 68 55 48 45 39 42 39 39 39 39 42 39 39 39 32 32 35
90 90 90 94 94 94 90 90 77 71 68 58 48 39 35 48 42 42 39 45 42 26 39 48 48 58 42 42 42 32 32 19 23 19 23 23 19 23 29 23 19 26 29
87 87 87 87 87 84 77 77 77 68 55 39 23 35 35 35 32 16 26 19 10 16 13 10 16 19 16 16 16 6 13 10 19 19 13 16 16 10 16 13 13 13 16
87 84 74 77 77 68 71 71 61 61 48 23 10 13 23 23 19 16 10 10 0 0 0 3 3 6 10 10 6 6 3 3 6 10 6 10 6 3 10 10 10 6 6
58 68 68 55 55 45 45 39 39 16 10 10 10 10 10 10 3 13 16 3 0 0 0 0 0 0 0 3 6 6 0 0 0 0 0 3 3 3 3 0 3 0 3
42 35 39 35 29 35 26 26 26 13 10 6 3 3 3 3 0 0 0 0 0 0 0 0 0 0 0 0 0 3 3 3 0 0 0 0 0 0 0 0 0 0 0
16 16 19 16 16 13 13 3 10 3 3 0 0 0 0 0 0 0 0 0 0 0 0 0 0 0 0 0 0 0 0 0 0 0 0 0 0 0 0 0 0 0 0
6 6 6 3 3 3 0 0 0 0 0 0 0 0 0 0 0 0 0 0 0 0 0 0 0 0 0 0 0 0 0 0 0 0 0 0 0 0 0 0 0 0 0
3 3 3 3 0 0 0 0 0 0 0 0 0 0 0 0 0 0 0 0 0 0 0 0 0 0 0 0 0 0 0 0 0 0 0 0 0 0 0 0 0 0 0
3 3 0 0 0 0 0 0 0 0 0 0 0 0 0 0 0 0 0 0 0 0 0 0 0 0 0 0 0 0 0 0 0 0 0 0 0 0 0 0 0 0 0
3 0 0 0 0 0 0 0 0 0 0 0 0 0 0 0 0 0 0 0 0 0 0 0 0 0 0 0 0 0 0 0 0 0 0 0 0 0 0 0 0 0 0
0 0 0 0 0 0 0 0 0 0 0 0 0 0 0 0 0 0 0 0 0 0 0 0 0 0 0 0 0 0 0 0 0 0 0 0 0 0 0 0 0 0 0
0 0 0 0 0 0 0 0 0 0 0 0 0 0 0 0 0 0 0 0 0 0 0 0 0 0 0 0 0 0 0 0 0 0 0 0 0 0 0 0 0 0 0
0 0 0 0 0 0 0 0 0 0 0 0 0 0 0 0 0 0 0 0 0 0 0 0 0 0 0 0 0 0 0 0 0 0 0 0 0 0 0 0 0 0 0
0 0 0 0 0 0 0 0 0 0 0 0 0 0 0 0 0 0 0 0 0 0 0 0 0 0 0 0 0 0 0 0 0 0 0 0 0 0 0 0 0 0 0
0 0 0 0 0 0 0 0 0 0 0 0 0 0 0 0 0 0 0 0 0 0 0 0 0 0 0 0 0 0 0 0 0 0 0 0 0 0 0 0 0 0 0
0 0 0 0 0 0 0 0 0 0 0 0 0 0 0 0 0 0 0 0 0 0 0 0 0 0 0 0 0 0 0 0 0 0 0 0 0 0 0 0 0 0 0
0 0 0 0 0 0 0 0 0 0 0 0 0 0 0 0 0 0 0 0 0 0 0 0 0 0 0 0 0 0 0 0 0 0 0 0 0 0 0 0 0 0 0
0 0 0 0 0 0 0 0 0 0 0 0 0 0 0 0 0 0 0 0 0 0 0 0 0 0 0 0 0 0 0 0 0 0 0 0 0 0 0 0 0 0 0
0 0 0 0 0 0 0 0 0 0 0 0 0 0 0 0 0 0 0 0 0 0 0 0 0 0 0 0 0 0 0 0 0 0 0 0 0 0 0 0 0 0 0
0 0 0 0 0 0 0 0 0 0 0 0 0 0 0 0 0 0 0 0 0 0 0 0 0 0 0 0 0 0 0 0 0 0 0 0 0 0 0 0 0 0 0
0 0 0 0 0 0 0 0 0 0 0 0 0 0 0 0 0 0 0 0 0 0 0 0 0 0 0 0 0 0 0 0 0 0 0 0 0 0 0 0 0 0 0
0 0 0 0 0 0 0 0 0 0 0 0 0 0 0 0 0 0 0 0 0 0 0 0 0 0 0 0 0 0 0 0 0 0 0 0 0 0 0 0 0 0 0
0 0 0 0 0 0 0 0 0 0 0 0 0 0 0 0 0 0 0 0 0 0 0 0 0 0 0 0 0 0 0 0 0 0 0 0 0 0 0 0 0 0 0
Height
5885 5886 5886 5886 5886 5886 5886 5886 5885 5885 5884 5884 5883 5883 5882 5880 5879 5877 5878 5877 5876 5875 5874 5874 5873 5872 5872 5871 5870 5869 5869 5868 5868 5867 5867 5866 5866 5866 5865 5865 5865 5865 5865
5882 5883 5883 5883 5883 5883 5883 5882 5881 5881 5880 5879 5879 5879 5877 5877 5875 5873 5873 5873 5872 5871 5870 5869 5868 5867 5866 5866 5865 5864 5863 5863 5862 5862 5861 5860 5860 5859 5859 5859 5859 5859 5859
5879 5880 5880 5880 5879 5879 5878 5878 5877 5876 5876 5875 5874 5873 5873 5872 5870 5868 5866 5867 5866 5865 5864 5863 5862 5861 5861 5860 5859 5858 5857 5857 5856 5855 5854 5853 5853 5852 5852 5852 5851 5851 5851
5875 5875 5875 5875 5875 5874 5874 5873 5872 5871 5870 5869 5868 5867 5866 5866 5865 5863 5860 5860 5860 5859 5857 5855 5855 5854 5854 5854 5853 5852 5851 5849 5848 5848 5847 5846 5845 5844 5844 5843 5843 5842 5842
5871 5871 5871 5871 5870 5869 5868 5867 5866 5865 5864 5863 5862 5861 5860 5859 5858 5856 5855 5854 5853 5851 5850 5849 5848 5847 5846 5846 5845 5844 5843 5841 5840 5839 5838 5837 5836 5835 5834 5833 5833 5832 5832
5866 5866 5866 5865 5864 5863 5862 5861 5860 5859 5858 5857 5855 5854 5853 5852 5851 5850 5849 5847 5845 5844 5843 5842 5840 5839 5838 5837 5836 5835 5834 5832 5831 5829 5828 5826 5825 5824 5823 5822 5822 5821 5820
5860 5860 5860 5859 5858 5857 5856 5855 5854 5853 5852 5850 5849 5847 5846 5845 5844 5842 5841 5840 5838 5836 5835 5834 5832 5831 5829 5828 5827 5825 5824 5822 5820 5818 5816 5815 5814 5812 5811 5810 5808 5808 5807
5853 5853 5853 5852 5851 5851 5850 5849 5847 5846 5845 5844 5842 5840 5840 5839 5837 5835 5834 5832 5831 5829 5827 5825 5823 5821 5819 5818 5817 5815 5813 5810 5808 5806 5804 5802 5800 5799 5797 5795 5794 5793 5793
5845 5845 5845 5845 5844 5843 5843 5842 5841 5839 5838 5837 5835 5833 5832 5831 5829 5828 5826 5824 5822 5820 5817 5815 5813 5811 5808 5806 5804 5802 5800 5797 5794 5792 5789 5787 5785 5783 5782 5780 5778 5777 5777
5839 5839 5839 5838 5837 5836 5836 5835 5833 5832 5831 5829 5828 5826 5824 5822 5820 5818 5816 5814 5812 5810 5807 5804 5801 5799 5795 5793 5790 5788 5785 5782 5779 5776 5774 5771 5769 5767 5765 5763 5762 5760 5760
5833 5833 5832 5831 5830 5829 5828 5827 5826 5824 5822 5821 5819 5817 5814 5812 5810 5808 5806 5804 5801 5798 5795 5792 5789 5785 5782 5778 5776 5773 5769 5766 5762 5759 5755 5753 5750 5749 5747 5745 5743 5742 5741
5826 5825 5825 5824 5823 5821 5820 5819 5817 5815 5813 5811 5809 5807 5805 5802 5800 5797 5794 5792 5789 5785 5781 5778 5774 5770 5766 5763 5760 5756 5752 5748 5744 5740 5737 5734 5731 5729 5727 5726 5724 5722 5721
5818 5817 5817 5815 5814 5813 5811 5810 5808 5806 5804 5801 5799 5796 5794 5791 5788 5785 5782 5779 5776 5772 5767 5762 5758 5753 5749 5746 5742 5738 5734 5730 5726 5722 5718 5714 5711 5709 5707 5705 5703 5701 5700
5811 5810 5809 5807 5806 5804 5802 5800 5799 5796 5794 5791 5789 5786 5783 5780 5776 5773 5769 5765 5761 5757 5751 5745 5740 5736 5731 5727 5723 5719 5715 5711 5706 5702 5698 5694 5690 5688 5686 5684 5682 5681 5679
5803 5802 5801 5799 5797 5795 5793 5791 5789 5786 5784 5781 5778 5774 5771 5767 5763 5759 5754 5750 5746 5741 5735 5729 5724 5718 5713 5709 5704 5700 5695 5691 5687 5683 5679 5675 5671 5668 5665 5663 5661 5660 5658
5795 5793 5792 5790 5788 5786 5784 5781 5779 5776 5773 5769 5766 5762 5758 5754 5749 5744 5740 5734 5729 5725 5720 5713 5707 5701 5696 5691 5686 5681 5677 5673 5669 5665 5661 5657 5654 5650 5647 5645 5642 5640 5638
5786 5784 5782 5780 5778 5776 5773 5771 5768 5765 5761 5758 5754 5750 5745 5741 5736 5731 5725 5720 5714 5709 5704 5698 5691 5685 5680 5675 5670 5665 5660 5656 5652 5648 5645 5641 5637 5634 5631 5628 5626 5624 5622
5777 5774 5772 5770 5768 5765 5762 5760 5757 5754 5750 5746 5742 5738 5733 5728 5723 5717 5711 5705 5700 5694 5689 5684 5677 5672 5666 5661 5656 5651 5646 5642 5638 5634 5630 5627 5623 5620 5617 5614 5612 5609 5607
5767 5764 5762 5760 5758 5755 5752 5749 5746 5743 5739 5734 5730 5725 5720 5715 5710 5704 5698 5692 5686 5681 5676 5671 5665 5660 5654 5649 5644 5639 5634 5630 5625 5621 5618 5615 5611 5608 5604 5602 5599 5597 5594
5757 5754 5752 5750 5747 5744 5742 5739 5735 5732 5727 5723 5718 5713 5708 5702 5697 5691 5686 5680 5675 5669 5664 5659 5655 5649 5644 5639 5634 5629 5625 5620 5616 5612 5608 5605 5601 5597 5594 5591 5589 5586 5584
5746 5744 5742 5740 5737 5734 5731 5728 5725 5721 5717 5712 5707 5702 5696 5691 5686 5680 5675 5670 5664 5659 5654 5649 5645 5640 5635 5630 5625 5621 5617 5612 5608 5604 5600 5596 5592 5589 5585 5582 5579 5577 5575
5737 5735 5732 5730 5728 5724 5721 5718 5714 5711 5706 5701 5696 5691 5686 5681 5676 5671 5666 5660 5655 5651 5646 5641 5636 5632 5627 5623 5618 5614 5610 5606 5602 5599 5594 5590 5586 5582 5578 5575 5572 5569 5567
5728 5726 5723 5721 5718 5715 5712 5708 5705 5701 5696 5692 5687 5682 5677 5673 5668 5663 5658 5653 5648 5644 5639 5635 5631 5626 5622 5618 5613 5609 5604 5600 5597 5593 5589 5585 5581 5577 5573 5569 5566 5563 5560
5719 5717 5714 5712 5709 5706 5703 5700 5696 5692 5688 5684 5679 5674 5670 5666 5662 5657 5652 5648 5643 5639 5635 5631 5627 5622 5618 5614 5609 5605 5601 5597 5593 5588 5585 5581 5577 5573 5569 5565 5561 5557 5554
5711 5708 5706 5703 5701 5698 5695 5692 5689 5685 5681 5677 5673 5669 5665 5661 5657 5653 5649 5644 5640 5636 5632 5628 5624 5620 5615 5611 5607 5603 5598 5594 5590 5586 5582 5578 5574 5569 5565 5561 5557 5553 5549
5702 5700 5698 5695 5693 5690 5688 5685 5682 5679 5676 5672 5669 5665 5661 5658 5654 5650 5646 5642 5638 5634 5630 5626 5622 5618 5613 5609 5605 5601 5597 5592 5588 5584 5580 5576 5571 5567 5563 5559 5554 5550 5545
Wind_Speed
14 15 15 16 16 16 17 18 18 19 20 21 22 22 23 24 24 24 22 22 21 21 21 21 21 21 20 20 20 20 21 21 22 22 23 23 24 24 24 25 25 25 26
15 16 17 18 19 19 20 21 21 22 23 23 24 25 26 26 26 26 26 25 25 25 24 24 24 24 23 23 23 23 23 24 24 25 25 26 26 27 27 27 28 28 29
17 18 19 20 21 22 23 24 25 25 26 27 27 28 28 29 29 29 29 28 28 28 27 27 27 27 27 27 27 26 27 27 28 28 29 29 29 30 31 31 32 32 33
20 21 22 23 24 25 26 27 27 27 27 28 29 30 31 31 31 31 31 32 31 30 29 29 29 30 30 30 31 31 31 31 32 32 33 33 34 34 35 35 35 36 37
23 25 25 26 27 28 28 28 28 28 28 29 30 31 32 32 33 32 32 33 33 32 32 30 30 32 33 34 34 35 35 36 37 37 37 38 38 39 39 39 40 41 41
27 28 28 28 29 29 30 29 28 29 29 29 30 31 32 33 32 31 32 33 32 32 33 33 34 35 37 37 38 39 40 40 41 42 42 43 43 43 44 45 45 45 46
29 28 29 30 31 31 29 28 29 30 30 29 28 28 30 31 31 31 32 32 32 32 34 37 38 39 40 40 41 43 44 45 47 47 48 48 48 48 49 50 50 51 51
31 32 32 33 33 33 32 30 30 29 29 30 30 30 31 31 32 32 33 34 35 36 38 39 40 42 44 44 45 46 47 49 51 52 52 53 54 54 54 55 55 56 56
31 32 33 33 32 31 30 30 31 31 31 32 32 32 33 33 34 34 35 36 38 39 39 41 43 45 48 49 49 50 52 54 56 57 57 58 59 60 60 60 61 61 61
34 33 33 32 31 31 31 31 32 32 33 34 34 34 35 36 36 36 37 38 40 41 43 45 46 48 50 53 54 56 57 59 60 61 62 63 63 64 64 64 65 65 66
32 31 31 32 32 31 32 33 34 35 35 36 37 36 37 39 39 39 40 41 43 45 46 49 50 52 53 55 57 58 59 61 62 63 65 66 66 67 67 67 67 68 68
33 32 32 31 32 32 34 35 36 37 38 39 39 40 41 41 41 43 44 45 47 49 52 54 55 56 58 59 61 61 62 63 65 66 67 68 69 70 71 70 69 70 70
33 33 34 35 35 35 37 38 39 39 40 40 41 42 43 43 45 46 48 50 51 54 56 58 60 61 62 63 63 63 64 65 67 67 68 69 70 71 72 72 72 72 72
36 36 36 36 37 38 39 40 42 42 42 43 44 45 46 47 48 50 52 54 56 57 58 60 61 61 62 63 63 64 66 66 66 67 68 69 69 69 70 71 72 73 72
38 38 38 38 39 41 42 43 45 45 44 45 46 47 47 49 50 52 54 55 56 56 58 59 60 60 61 62 63 63 63 63 64 64 65 65 65 66 66 67 68 68 67
39 39 40 41 42 43 44 45 46 46 46 46 47 47 49 50 52 53 53 54 55 55 57 58 58 59 59 59 59 59 60 60 60 61 61 61 62 62 62 62 62 62 62
40 41 43 44 45 45 45 46 45 45 46 47 47 48 49 50 51 51 51 52 53 54 54 54 54 54 54 54 55 55 55 55 56 56 56 56 56 56 56 56 56 56 55
42 43 44 44 45 45 45 45 45 46 47 46 47 48 48 49 50 50 50 51 50 50 49 48 48 48 48 48 48 49 50 50 50 50 50 50 50 50 50 50 50 49 49
44 45 45 45 45 45 45 44 45 45 46 46 46 47 48 48 48 48 48 47 45 44 44 43 43 43 43 43 42 43 43 44 44 44 43 43 43 43 43 43 43 42 42
44 45 44 43 43 43 43 43 43 44 44 45 45 45 45 45 45 44 43 42 41 40 40 40 40 39 39 38 38 37 37 38 37 37 37 37 36 36 36 36 35 35 36
41 41 41 40 40 40 41 42 42 43 43 43 43 42 42 41 41 40 39 38 38 37 37 36 36 35 34 33 33 33 32 32 31 31 30 30 30 30 30 30 30 30 31
37 37 37 38 38 38 39 40 40 40 40 39 39 38 38 37 36 35 34 34 33 32 31 31 30 29 28 27 27 27 27 26 26 26 26 26 26 26 26 26 26 27 27
34 35 35 36 36 37 37 37 36 36 35 35 35 34 33 32 30 29 29 27 26 25 25 24 24 23 24 24 24 24 24 24 23 23 23 23 24 23 23 22 22 23 24
32 32 33 33 33 33 33 33 32 32 31 30 29 28 27 26 25 25 23 22 21 22 22 21 21 21 22 22 22 22 22 22 22 21 21 21 22 22 22 22 21 22 22
29 29 30 31 31 30 30 29 28 27 26 25 24 23 22 21 21 20 19 19 20 20 20 19 20 21 21 21 22 22 21 21 20 20 20 20 20 21 21 21 20 20 21
28 28 28 28 27 26 26 25 23 22 21 20 19 19 18 18 18 18 18 18 18 18 18 19 19 20 20 20 21 21 21 20 20 20 20 20 19 19 19 20 20 20 20
Wind_Direction
260 263 266 270 274 276 279 281 283 286 288 289 290 290 290 291 291 291 291 292 291 292 292 292 292 292 290 288 287 285 282 281 280 280 278 277 275 275 274 272 271 270 270
266 269 272 275 279 280 280 280 283 285 286 288 290 290 289 290 290 290 289 288 288 288 289 290 288 287 287 287 286 284 283 280 279 279 279 278 277 275 274 273 272 271 270
270 273 275 278 281 281 282 283 286 284 284 286 287 287 286 287 287 287 287 287 287 285 285 286 286 284 284 285 284 284 283 282 280 279 278 277 276 275 274 273 273 272 271
271 274 276 278 280 281 281 284 286 285 285 285 284 282 281 283 284 284 285 284 284 282 282 284 285 285 284 283 283 283 283 282 280 279 278 277 276 275 274 273 273 273 272
273 274 276 280 280 279 280 282 285 286 288 289 288 286 284 286 286 283 281 282 282 281 282 282 281 283 282 282 282 282 282 281 280 279 278 277 276 274 274 273 273 272 272
275 276 279 282 283 281 280 282 284 288 290 291 291 289 287 288 286 284 282 284 283 281 280 279 279 279 280 279 281 281 281 280 280 278 278 277 276 275 274 273 273 272 272
275 277 279 283 284 283 284 285 288 289 291 293 294 293 291 290 289 286 283 284 283 282 280 280 279 278 277 278 280 280 280 280 279 279 277 277 276 275 274 273 272 272 271
276 276 277 278 283 285 286 290 291 293 294 294 294 293 292 290 289 287 285 285 284 282 280 280 279 279 277 278 278 278 278 279 279 278 277 276 275 275 273 273 272 272 271
279 278 281 283 286 288 289 290 292 295 295 294 293 292 290 288 288 287 286 285 284 282 281 282 281 280 279 278 278 277 277 277 277 276 275 274 274 273 273 272 272 272 272
285 287 287 288 291 289 290 290 293 295 293 293 293 292 291 290 289 287 286 286 284 281 281 282 282 280 279 278 277 277 276 276 276 276 274 273 273 273 273 272 272 271 271
290 293 294 293 291 292 292 293 294 295 294 293 293 293 291 291 291 290 289 288 286 284 283 283 282 281 280 279 278 278 277 277 277 276 275 274 273 273 273 272 272 272 271
292 293 293 295 295 295 294 294 294 294 295 295 294 293 292 292 292 291 290 289 288 286 285 283 282 281 280 279 279 278 277 276 276 276 276 275 274 273 273 273 272 272 271
293 293 293 297 296 296 296 296 295 295 295 295 295 294 292 292 292 291 290 290 289 287 286 284 283 282 281 280 279 278 277 277 277 276 276 276 276 275 273 272 272 271 271
292 293 294 295 294 295 295 295 295 295 294 294 293 292 291 292 292 291 290 290 288 287 286 285 283 283 282 282 281 280 279 278 278 277 277 277 276 275 274 273 273 273 273
292 292 292 291 291 293 293 292 293 293 292 293 293 292 292 293 293 292 291 290 289 288 287 286 285 285 284 283 283 281 280 280 279 279 279 279 279 279 278 277 276 276 276
289 291 291 292 291 290 291 291 291 292 293 293 293 293 294 294 294 293 292 290 290 289 288 288 287 286 286 286 284 283 282 282 281 281 280 280 280 281 281 280 279 278 278
287 287 287 289 289 289 291 292 292 293 293 293 294 294 294 295 294 293 292 292 291 291 290 289 289 289 288 288 287 286 286 285 285 284 284 283 283 282 282 282 282 281 280
285 286 287 288 289 290 290 290 292 294 293 294 294 294 295 295 295 294 294 293 293 293 292 292 292 292 292 291 291 289 289 289 289 289 289 288 287 285 285 284 283 282 282
284 285 287 288 288 289 292 293 294 295 295 296 296 296 296 297 296 296 296 296 296 297 297 296 295 295 296 296 295 294 293 293 294 293 293 292 291 288 287 287 286 285 284
285 285 286 287 289 291 293 295 296 296 297 297 297 298 298 298 298 298 298 298 299 299 299 298 298 298 299 299 299 299 298 298 297 297 297 297 296 294 291 289 288 287 286
285 285 287 289 292 293 295 296 297 298 298 298 299 299 299 300 300 301 300 301 301 301 301 301 301 302 302 302 302 302 302 302 302 302 303 303 302 300 297 295 293 291 290
286 288 291 292 293 294 296 298 299 299 300 300 301 301 302 302 303 303 303 304 304 305 306 307 307 308 309 311 312 312 311 310 310 310 310 310 310 309 305 302 300 298 295
289 291 291 293 294 297 298 299 301 302 302 302 303 304 305 306 306 308 309 310 312 314 315 316 317 318 320 321 321 322 321 320 318 318 318 319 318 316 314 311 308 305 303
291 292 293 295 296 297 299 300 302 303 304 306 307 309 311 312 313 315 317 319 321 322 323 324 326 328 330 332 332 332 331 329 327 326 326 327 325 323 320 318 317 315 313
292 294 295 296 298 298 299 301 304 306 308 310 314 316 317 318 321 323 325 327 329 330 330 332 335 338 340 341 341 341 340 339 337 335 334 334 333 332 331 329 327 326 324
292 293 294 296 297 299 300 303 305 307 310 314 318 321 322 325 328 330 332 335 337 339 341 344 345 346 345 344 344 345 346 346 346 345 344 343 342 342 342 340 338 335 334